{"data":{"norad_id":45670,"intl_designator":"2020-035P","name":"STARLINK-1453","alt_names":[],"object_type":"PAYLOAD","status":"ACTIVE","operator":null,"country":"US","launch_date":"2020-06-04","launch_site_code":"AFETR","launch_vehicle":null,"mission":null,"orbit_class":"UNKNOWN","rcs_meters":null,"size_class":null,"mass_kg":null,"dimensions":null,"purposes":["comms"],"wikipedia_slug":null,"has_3d_model":false,"image_url":null,"decayed_at":null,"tle_current":{"epoch":"2026-09-20T04:25:41.839392Z","epoch_age_seconds":49282,"freshness":"FRESH","line1":"1 45670U 20035P   26263.18451203  .00490416  12767-3  60953-3 0  9991","line2":"2 45670  53.0255 127.0285 0002885 240.3469 119.7276 16.07197287349984","mean_motion":16.07197287,"eccentricity":0.0002885,"inclination_deg":53.0255,"raan_deg":127.0285,"arg_perigee_deg":240.3469,"mean_anomaly_deg":119.7276,"bstar":0.00060953,"rev_number":34998,"period_min":89.596965577755,"perigee_km":252.62951325364,"apogee_km":256.45656963755,"semimajor_km":6632.6800414456,"source":"CELESTRAK","updated_at":"2026-09-20T09:00:38.450947Z"}}}